Crosby, ND

3:55 AM CST on January 20, 2018 (GMT -0600)
Crosby

Weather History for KD50 - January, 2014

Change the Weather History Date:

Saturday, January 18, 2014

  Actual Average (KISN) Record (KISN)
Temperature  
Mean Temperature 30 °F -  
Max Temperature 35 °F 23 °F 49 °F (1900)
Min Temperature 26 °F -2 °F -37 °F (1950)
Degree Days  
Heating Degree Days 34    
Moisture  
Dew Point 29 °F    
Average Humidity 87    
Maximum Humidity 100    
Minimum Humidity 75    
Precipitation  
Precipitation 0.00 in - - ()
Sea Level Pressure  
Sea Level Pressure 29.84 in    
Wind  
Wind Speed 23 mph (West)    
Max Wind Speed 33 mph    
Max Gust Speed 46 mph    
Visibility 10 miles    
Events      
Averages and records for this station are not official NWS values.
T = Trace of Precipitation, MM = Missing Value Source: NWS Daily Summary

Daily Weather History Graph

Daily Weather History Graph

Search for Another Location

Airport or City:

Trip Planner

Search our weather history database for the weather conditions in past years. The results will help you decide how hot, cold, wet, or windy it might be!

Date:

Astronomy

Jan. 18, 2014 Rise Set
Actual Time 8:39 AM CST 5:28 PM CST
Civil Twilight 8:03 AM CST 6:04 PM CST
Nautical Twilight 7:24 AM CST 6:43 PM CST
Astronomical Twilight 6:46 AM CST 7:21 PM CST
Moon 8:30 PM CST (1/18) 9:23 AM CST (1/18)
Length of Visible Light 10h 00m
Length of Day
8h 49m
Waning Gibbous, 94% of the Moon is Illuminated
Jan 18
Waning Gibbous
Jan 23
Last Quarter
Jan 30
New
Feb 6
First Quarter
Feb 14
Full

Hourly Weather History & Observations

Time (CST) Temp. Windchill Dew Point Humidity Pressure Visibility Wind Dir Wind Speed Gust Speed Precip Events Conditions
12:15 AM 35.6 °F 23.0 °F 32.0 °F 87% 29.73 in 10.0 mi NW 27.6 mph 36.8 mph N/A   Unknown
12:35 AM 35.6 °F 22.7 °F 32.0 °F 87% 29.74 in 10.0 mi NW 28.8 mph 40.3 mph N/A   Unknown
12:55 AM 35.6 °F 22.1 °F 32.0 °F 87% 29.75 in 10.0 mi NW 32.2 mph 41.4 mph N/A   Unknown
1:15 AM 35.6 °F 21.9 °F 32.0 °F 87% 29.76 in 10.0 mi NW 33.4 mph 46.0 mph N/A   Unknown
1:35 AM 33.8 °F 20.1 °F 32.0 °F 93% 29.78 in 10.0 mi NW 29.9 mph 41.4 mph N/A   Unknown
1:55 AM 33.8 °F 20.3 °F 32.0 °F 93% 29.79 in 10.0 mi NNW 28.8 mph 38.0 mph N/A   Unknown
2:15 AM 33.8 °F 20.1 °F 32.0 °F 93% 29.80 in 10.0 mi NNW 29.9 mph 39.1 mph N/A   Unknown
2:35 AM 33.8 °F 20.1 °F 30.2 °F 87% 29.82 in 10.0 mi NNW 29.9 mph 38.0 mph N/A   Unknown
2:55 AM 33.8 °F 20.1 °F 32.0 °F 93% 29.83 in 10.0 mi NNW 29.9 mph 42.6 mph N/A   Unknown
3:15 AM 33.8 °F 20.3 °F 30.2 °F 87% 29.85 in 10.0 mi NNW 28.8 mph 41.4 mph N/A   Unknown
3:35 AM 33.8 °F 19.9 °F 30.2 °F 87% 29.86 in 10.0 mi NNW 31.1 mph 38.0 mph N/A   Unknown
3:55 AM 32.0 °F 17.9 °F 30.2 °F 93% 29.87 in 10.0 mi NNW 28.8 mph 41.4 mph N/A   Unknown
4:15 AM 32.0 °F 17.6 °F 30.2 °F 93% 29.88 in 10.0 mi NNW 29.9 mph 38.0 mph N/A   Unknown
4:35 AM 32.0 °F 17.6 °F 30.2 °F 93% 29.89 in 10.0 mi NNW 29.9 mph 41.4 mph N/A   Unknown
4:55 AM 32.0 °F 18.1 °F 28.4 °F 87% 29.90 in 10.0 mi NNW 27.6 mph 34.5 mph N/A   Unknown
5:15 AM 32.0 °F 18.6 °F 30.2 °F 93% 29.91 in 10.0 mi NNW 25.3 mph 34.5 mph N/A   Unknown
5:35 AM 32.0 °F 18.9 °F 30.2 °F 93% 29.93 in 10.0 mi NNW 24.2 mph 36.8 mph N/A   Unknown
5:55 AM 32.0 °F 19.2 °F 28.4 °F 87% 29.95 in 10.0 mi NNW 23.0 mph 34.5 mph N/A   Unknown
6:15 AM 32.0 °F 19.8 °F 28.4 °F 87% 29.96 in 10.0 mi NNW 20.7 mph 28.8 mph N/A   Unknown
6:35 AM 32.0 °F 23.0 °F 28.4 °F 87% 29.97 in 10.0 mi North 11.5 mph - N/A   Unknown
6:55 AM 30.2 °F 21.9 °F 30.2 °F 100% 29.98 in 10.0 mi North 9.2 mph 18.4 mph N/A   Unknown
7:15 AM 32.0 °F 21.2 °F 26.6 °F 80% 29.98 in 10.0 mi NNW 16.1 mph 19.6 mph N/A   Unknown
7:35 AM 32.0 °F 21.2 °F 26.6 °F 80% 30.00 in 10.0 mi NNW 16.1 mph - N/A   Unknown
7:55 AM 30.2 °F 21.9 °F 26.6 °F 86% 29.99 in 10.0 mi NNW 9.2 mph - N/A   Unknown
8:15 AM 30.2 °F 17.8 °F 26.6 °F 86% 30.00 in 10.0 mi NNW 19.6 mph 25.3 mph N/A   Unknown
8:35 AM 28.4 °F 16.2 °F 28.4 °F 100% 30.00 in 10.0 mi NW 17.3 mph 20.7 mph N/A   Unknown
8:55 AM 28.4 °F 17.0 °F 28.4 °F 100% 30.01 in 10.0 mi NW 15.0 mph - N/A   Unknown
9:15 AM 28.4 °F 17.0 °F 26.6 °F 93% 30.01 in 10.0 mi WNW 15.0 mph - N/A   Unknown
9:35 AM 26.6 °F 15.2 °F 26.6 °F 100% 30.00 in 10.0 mi WNW 13.8 mph - N/A   Unknown
9:55 AM 26.6 °F 15.2 °F 24.8 °F 93% 30.01 in 10.0 mi West 13.8 mph - N/A   Unknown
10:15 AM 26.6 °F 14.7 °F 24.8 °F 93% 30.01 in 10.0 mi West 15.0 mph - N/A   Unknown
10:35 AM 26.6 °F 14.7 °F 24.8 °F 93% 30.02 in 10.0 mi West 15.0 mph - N/A   Unknown
10:55 AM 26.6 °F 13.8 °F 24.8 °F 93% 30.02 in 10.0 mi West 17.3 mph - N/A   Unknown
11:15 AM 28.4 °F 16.6 °F 24.8 °F 86% 30.01 in 10.0 mi West 16.1 mph - N/A   Unknown
11:35 AM 28.4 °F 17.5 °F 26.6 °F 93% 30.00 in 10.0 mi West 13.8 mph - N/A   Unknown
11:55 AM 30.2 °F 19.3 °F 26.6 °F 86% 29.98 in 10.0 mi West 15.0 mph - N/A   Unknown
12:15 PM 32.0 °F 22.5 °F 26.6 °F 80% 29.97 in 10.0 mi West 12.7 mph - N/A   Unknown
12:35 PM 32.0 °F 21.6 °F 26.6 °F 80% 29.97 in 10.0 mi West 15.0 mph 20.7 mph N/A   Unknown
12:55 PM 32.0 °F 21.2 °F 26.6 °F 80% 29.95 in 10.0 mi West 16.1 mph - N/A   Unknown
1:15 PM 32.0 °F 21.2 °F 26.6 °F 80% 29.94 in 10.0 mi WSW 16.1 mph - N/A   Unknown
1:35 PM 32.0 °F 21.2 °F 28.4 °F 87% 29.92 in 10.0 mi WSW 16.1 mph 24.2 mph N/A   Unknown
1:55 PM 33.8 °F 22.8 °F 28.4 °F 81% 29.90 in 10.0 mi WSW 18.4 mph - N/A   Unknown
2:15 PM 35.6 °F 25.9 °F 28.4 °F 75% 29.89 in 10.0 mi WSW 16.1 mph - N/A   Unknown
2:35 PM 33.8 °F 22.8 °F 30.2 °F 87% 29.87 in 10.0 mi SW 18.4 mph - N/A   Unknown
2:55 PM 33.8 °F 22.2 °F 30.2 °F 87% 29.84 in 10.0 mi SW 20.7 mph 24.2 mph N/A   Unknown
3:15 PM 35.6 °F 24.8 °F 30.2 °F 81% 29.84 in 10.0 mi WSW 19.6 mph - N/A   Unknown
3:35 PM 35.6 °F 24.0 °F 30.2 °F 81% 29.82 in 10.0 mi SW 23.0 mph - N/A   Unknown
3:55 PM 35.6 °F 25.2 °F 30.2 °F 81% 29.81 in 10.0 mi SW 18.4 mph 24.2 mph N/A   Unknown
4:15 PM 35.6 °F 24.0 °F 30.2 °F 81% 29.79 in 10.0 mi SW 23.0 mph 28.8 mph N/A   Unknown
4:35 PM 35.6 °F 24.8 °F 30.2 °F 81% 29.79 in 10.0 mi SW 19.6 mph 25.3 mph N/A   Unknown
4:55 PM 33.8 °F 22.8 °F 30.2 °F 87% 29.78 in 10.0 mi SW 18.4 mph - N/A   Unknown
5:15 PM 33.8 °F 22.5 °F 30.2 °F 87% 29.78 in 10.0 mi SW 19.6 mph 25.3 mph N/A   Unknown
5:35 PM 33.8 °F 22.2 °F 30.2 °F 87% 29.76 in 10.0 mi SW 20.7 mph 26.5 mph N/A   Unknown
5:55 PM 33.8 °F 21.9 °F 30.2 °F 87% 29.75 in 10.0 mi SW 21.9 mph 27.6 mph N/A   Unknown
6:15 PM 33.8 °F 22.2 °F 30.2 °F 87% 29.74 in 10.0 mi SW 20.7 mph 31.1 mph N/A   Unknown
6:35 PM 33.8 °F 21.6 °F 32.0 °F 93% 29.73 in 10.0 mi SW 23.0 mph 29.9 mph N/A   Unknown
6:55 PM 33.8 °F 21.9 °F 32.0 °F 93% 29.71 in 10.0 mi SW 21.9 mph - N/A   Unknown
7:15 PM 33.8 °F 21.6 °F 32.0 °F 93% 29.70 in 10.0 mi SW 23.0 mph 28.8 mph N/A   Unknown
7:35 PM 33.8 °F 22.2 °F 32.0 °F 93% 29.70 in 10.0 mi SW 20.7 mph 29.9 mph N/A   Unknown
7:55 PM 35.6 °F 25.5 °F 30.2 °F 81% 29.68 in 10.0 mi WSW 17.3 mph 25.3 mph N/A   Unknown
8:15 PM 35.6 °F 24.5 °F 30.2 °F 81% 29.67 in 10.0 mi WSW 20.7 mph 28.8 mph N/A   Unknown
8:35 PM 35.6 °F 24.5 °F 30.2 °F 81% 29.66 in 10.0 mi WSW 20.7 mph 26.5 mph N/A   Unknown
8:55 PM 35.6 °F 25.2 °F 30.2 °F 81% 29.65 in 10.0 mi WSW 18.4 mph 26.5 mph N/A   Unknown
9:15 PM 32.0 °F 20.5 °F 28.4 °F 87% 29.64 in 10.0 mi WSW 18.4 mph 23.0 mph N/A   Unknown
9:35 PM 33.8 °F 22.5 °F 28.4 °F 81% 29.64 in 10.0 mi WSW 19.6 mph 26.5 mph N/A   Unknown
9:55 PM 33.8 °F 22.5 °F 28.4 °F 81% 29.64 in 10.0 mi WSW 19.6 mph 23.0 mph N/A   Unknown
10:15 PM 32.0 °F 19.8 °F 28.4 °F 87% 29.63 in 10.0 mi WSW 20.7 mph - N/A   Unknown
10:35 PM 32.0 °F 20.5 °F 28.4 °F 87% 29.62 in 10.0 mi WSW 18.4 mph - N/A   Unknown
10:55 PM 32.0 °F 21.6 °F 28.4 °F 87% 29.62 in 10.0 mi WSW 15.0 mph 20.7 mph N/A   Unknown
11:15 PM 32.0 °F 22.1 °F 28.4 °F 87% 29.61 in 10.0 mi WSW 13.8 mph - N/A   Unknown
11:35 PM 30.2 °F 20.2 °F 28.4 °F 93% 29.61 in 10.0 mi SW 12.7 mph - N/A   Unknown
11:55 PM 32.0 °F 22.1 °F 26.6 °F 80% 29.61 in 10.0 mi SW 13.8 mph - N/A   Unknown